Weather Service Report


027 
ASUS44 KFWD 071615
RWRTX 
NORTH TEXAS HOURLY WEATHER ROUNDUP
NATIONAL WEATHER SERVICE FORT WORTH TX
1000 AM CST WED DEC 07 2016

NOTE: "FAIR" INDICATES FEW OR NO CLOUDS BELOW 12,000 FEET WITH NO
SIGNIFICANT WEATHER AND/OR OBSTRUCTIONS TO VISIBILITY.

TXZ118-119-071700-
DALLAS/FORT WORTH METROPLEX
  
CITY           SKY/WX    TMP DP  RH WIND       PRES   REMARKS
DFW AIRPORT    CLOUDY    46  37  71 CALM      30.12R                  
DALLAS LOVE    CLOUDY    48  39  71 CALM      30.12R                  
FTW MEACHAM    CLOUDY    45  36  70 CALM      30.12R                  
DAL-EXECUTIVE  MOSUNNY   47  41  80 E3        30.11R                  
FTW-ALLIANCE   CLOUDY    42  35  76 CALM      30.12R                  
FTW-NAS-JRB    CLOUDY    44  38  79 NW3       30.13R                  
FTW-SPINKS     SUNNY     45  39  81 CALM      30.13R                  
ARLINGTON      MOSUNNY   47  40  76 CALM      30.12R                  
GRAND PRAIRIE  SUNNY     46  37  71 CALM      30.13R                  
ADDISON        SUNNY     46  39  76 CALM      30.12R                  
MESQUITE       PTSUNNY   46  39  76 CALM      30.13R                  
LANCASTER      PTSUNNY   53  46  78 CALM      30.13R                  
$$

TXZ091>094-102>105-117-120-121-131>134-071700-
NORTH CENTRAL TEXAS
  
CITY           SKY/WX    TMP DP  RH WIND       PRES   REMARKS
SHRMAN/DENISON PTSUNNY   45  38  76 CALM      30.13S                  
GAINESVILLE    MOSUNNY   40  33  73 CALM      30.15R                  
BOWIE          CLOUDY    41  35  79 CALM      30.12R                  
BRIDGEPORT     CLOUDY    41  36  83 CALM      30.13R                  
DECATUR        CLOUDY    44  35  71 E3        30.12R                  
DENTON         CLOUDY    43  36  76 CALM      30.12R                  
MCKINNEY       CLOUDY    45  39  79 CALM      30.12R                  
BONHAM         CLOUDY    45  39  81 NE3       30.14R                  
GREENVILLE     CLOUDY    45  41  87 CALM      30.13R FOG              
ROCKWALL       CLOUDY    46  40  80 CALM      30.13R                  
TERRELL        CLOUDY    49  42  77 SE3       30.12R                  
WAXAHACHIE     PTSUNNY   48  44  87 CALM      30.12R                  
CLEBURNE       PTSUNNY   48  45  87 VRB5      30.12S                  
GRANBURY       CLOUDY    47  41  79 SE3       30.13R                  
$$

TXZ083>090-098>101-113>116-127>130-139>142-154-155-071700-
WESTERN NORTH TEXAS
  
CITY           SKY/WX    TMP DP  RH WIND       PRES   REMARKS
WICHITA FALLS  CLOUDY    37  29  72 NE6       30.12R WCI  32          
WF-KICKAPOO    CLOUDY    38  30  72 NE3       30.14R                  
VERNON         SUNNY     38  25  61 E7        30.13R WCI  32          
ABILENE        CLOUDY    39  39 100 SE9       30.08R FOG     WCI  33  
ABILENE-DYESS  CLOUDY    40  37  89 SE8       30.06R FOG     WCI  34  
CISCO          CLOUDY    41  37  87 SE5       30.08R WCI  38          
BRECKENRIDGE   CLOUDY    42  39  89 SE5       30.08F WCI  39          
GRAHAM         CLOUDY    41  35  78 SE3       30.09R                  
MINERAL WELLS  CLOUDY    41  35  79 SE3       30.09R                  
STEPHENVILLE   PTSUNNY   45  42  89 S3        30.12R                  
COMANCHE       CLOUDY    40  40 100 CALM      30.10R FOG              
BROWNWOOD      CLOUDY    41  41 100 SE6       30.11R FOG     WCI  37  
COLEMAN        CLOUDY    42  41  99 S6        30.09R FOG     WCI  38  
$$

TXZ143>147-156>162-174-175-071700-
CENTRAL TEXAS
  
CITY           SKY/WX    TMP DP  RH WIND       PRES   REMARKS
WACO           PTSUNNY   50  43  77 SE7       30.12R                  
WACO-MCGREGOR  PTSUNNY   50  43  77 S9        30.13R                  
HILLSBORO      PTSUNNY   51  44  77 SE6       30.11R                  
CORSICANA      CLOUDY    52  46  80 E3        30.13R                  
MEXIA          CLOUDY    50  45  81 CALM      30.11R                  
HEARNE         CLOUDY    49  46  89 SE3       30.14R                  
CAMERON        CLOUDY    49  46  88 SE3       30.14R                  
TEMPLE         CLOUDY    50  45  81 VRB3      30.13R                  
KILLEEN        CLOUDY    46  45  96 CALM      30.11R                  
KILLEEN-SKYLRK CLOUDY    47  45  93 SE5       30.12R                  
FORT HOOD      CLOUDY    46  46 100 SE5       30.09R                  
GATESVILLE     MOSUNNY   48  43  81 CALM      30.13R                  
HAMILTON       CLOUDY    45  45 100 S8        30.11R FOG              
LAMPASAS         N/A    N/A N/A N/A MISG        N/A                   
$$

TXZ095>097-106>112-122>126-135>138-148>153-164>167-071700-
EAST TEXAS
  
CITY           SKY/WX    TMP DP  RH WIND       PRES   REMARKS
PARIS          CLOUDY    45  39  81 E7        30.15R                  
SULPHUR SPRNGS FOG       47  47  99 CALM      30.15R VSB 1/2          
MOUNT PLEASANT CLOUDY    47  47 100 E6        30.15R                  
GILMER         CLOUDY    50  49  96 SE5       30.12R                  
MINEOLA        CLOUDY    48  48 100 SE3       30.13R FOG              
TYLER          CLOUDY    51  49  92 S6        30.12R                  
LONGVIEW       CLOUDY    52  50  93 SE7       30.12R                  
MARSHALL       CLOUDY    50  47  91 CALM      30.14R                  
ATHENS         CLOUDY    50  46  87 SE3       30.11R                  
PALESTINE      PTSUNNY   52  48  88 E3        30.13R                  
JACKSONVILLE   CLOUDY    50  50 100 CALM      30.12R                  
HENDERSON      CLOUDY    52  49  89 E5        30.13R                  
CENTER         CLOUDY    54  52  94 CALM      30.13R                  
NACOGDOCHES    CLOUDY    52  46  82 E5        30.10S                  
LUFKIN         CLOUDY    53  50  89 SE5       30.11R                  
$$

SUPPLEMENTAL OBSERVATIONS (CENTRAL)
  
CITY           SKY/WX    TMP DP  RH WIND       PRES   REMARKS
DENISON DAM      N/A     43  34  70 E1          N/A                   
CADDO GRASSLND   N/A     45  39  81 N1          N/A                   
CEDAR HILL       N/A     48  43  81 N2          N/A                   
ATHENS           N/A     52  46  82 SE2         N/A                   
LAKE LIMESTONE   N/A     48  45  87 SE6         N/A                   
MCGREGOR         N/A     50  46  87 SE6         N/A                   
TEMPLE           N/A     52  45  76 SE3         N/A                   
$$

SUPPLEMENTAL OBSERVATIONS (WEST)
  
CITY           SKY/WX    TMP DP  RH WIND       PRES   REMARKS
POSSUM KINGDOM   N/A     43  37  81 SE6         N/A  WCI  39          
LBJ GRASSLAND    N/A     46  36  66 E3          N/A                   
GRANBURY         N/A     46  39  76 SE3         N/A                   
COMANCHE         N/A     39  37  93 E2          N/A                   
HAMBY            N/A     39  36  87 S12         N/A  WCI  32          
IVIE RESERVOIR   N/A     45  39  81 S6          N/A                   
$$

SUPPLEMENTAL OBSERVATIONS (EAST)
  
CITY           SKY/WX    TMP DP  RH WIND       PRES   REMARKS
CLARKSVILLE      N/A     45  39  81 E7          N/A                   
TEXARKANA        N/A     46  41  81 E5          N/A                   
CADDO LAKE       N/A     45  43  93 NE2         N/A                   
LUFKIN           N/A     55  50  82 MISG        N/A                   
N SABINE NF      N/A     52  50  93 MISG        N/A                   
S SABINE NF      N/A     54  50  87 E3          N/A                   
$$

SUPPLEMENTAL OBSERVATIONS ARE A COLLECTION OF AUTOMATED INSTRUMENTS
THAT ARE MAINTAINED BY A VARIETY OF FEDERAL AND STATE AGENCIES. 
CERTAIN ELEMENTS...SUCH AS HUMIDITY VALUES AND SUSTAINED WIND 
SPEEDS...MAY BE APPROXIMATED.

  

Return to Home page


Western Regional Climate Center, wrcc@dri.edu